This is the latest recevied weather packets stored in our database for station/object OK2ILA-1. If no packets are shown the sender has not sent any weather packets the latest 10 day(s).
| Time | Temp. | Humidity | Pressure | Rain* | Wind** | Luminosity | Snow |
|---|---|---|---|---|---|---|---|
| 1788087516 | 27.22° C | 100% | 1017.7 hPa | 0 mm | - | - | - |
| 1788086795 | 26.67° C | 100% | 1017.9 hPa | 0 mm | - | - | - |
| 1788086075 | 26.67° C | 100% | 1017.9 hPa | 0 mm | - | - | - |
| 1788085354 | 26.11° C | 100% | 1018.1 hPa | 0 mm | - | - | - |
| 1788084633 | 27.78° C | 100% | 1018.2 hPa | 0 mm | - | - | - |
| 1788083913 | 27.22° C | 100% | 1018.1 hPa | 0 mm | - | - | - |
| 1788083192 | 27.22° C | 100% | 1018.2 hPa | 0 mm | - | - | - |
| 1788082471 | 26.67° C | 100% | 1018.2 hPa | 0 mm | - | - | - |
| 1788081751 | 26.67° C | 100% | 1018.3 hPa | 0 mm | - | - | - |
| 1788081030 | 26.11° C | 100% | 1018.3 hPa | 0 mm | - | - | - |
| 1788080310 | 26.11° C | 100% | 1018.4 hPa | 0 mm | - | - | - |
| 1788079589 | 25.56° C | 100% | 1018.5 hPa | 0 mm | - | - | - |
| 1788078868 | 25.56° C | 100% | 1018.5 hPa | 0 mm | - | - | - |
| 1788078147 | 25° C | 100% | 1018.4 hPa | 0 mm | - | - | - |
| 1788077427 | 24.44° C | 100% | 1018.5 hPa | 0 mm | - | - | - |
| 1788076706 | 23.89° C | 100% | 1018.5 hPa | 0 mm | - | - | - |
| 1788075985 | 22.78° C | 100% | 1018.5 hPa | 0 mm | - | - | - |
| 1788075748 | 22.78° C | 100% | 1018.5 hPa | 0 mm | - | - | - |
| 1788075265 | 22.22° C | 100% | 1018.5 hPa | 0 mm | - | - | - |
| 1788074544 | 21.11° C | 100% | 1018.5 hPa | 0 mm | - | - | - |
| 1788073823 | 20° C | 100% | 1018.5 hPa | 0 mm | - | - | - |
| 1788073103 | 18.89° C | 100% | 1018.5 hPa | 0 mm | - | - | - |
| 1788072382 | 17.78° C | 100% | 1018.5 hPa | 0 mm | - | - | - |
| 1788071661 | 16.67° C | 100% | 1018.5 hPa | 0 mm | - | - | - |
| 1788070940 | 16.11° C | 100% | 1018.6 hPa | 0 mm | - | - | - |
* Rain latest hour (hover to see other rain measurements)
** Current wind speed in m/s (hover to see current wind gust speed)